SWA1994 KSAN-KPDX

Flight info

Callsign SWA1994
Flight time 2h 2m
Altitude 36000
Route PADRZ2 EHF DNOLD GALLO TMBRS4
Aircraft B738/M-SADE2E3GIJ4RWZ/LB1D1

Departure

Time 2026-04-20 00:17
Airport San Diego International Airport (KSAN)

Arrival

Time 2026-04-20 02:19
Airport Portland International Airport (KPDX)
Time Latitude Longitude Altitude Speed Heading
2026-04-19 23:57 32.73347 -117.20056 29 ft 0 kts 263°
2026-04-20 00:09 32.73348 -117.20038 30 ft 4 kts 269°
2026-04-20 00:10 32.73346 -117.20007 29 ft 4 kts 295°
2026-04-20 00:10 32.73331 -117.19988 29 ft 4 kts
2026-04-20 00:10 32.73326 -117.19988 28 ft 1 kts 11°
2026-04-20 00:12 32.73328 -117.19988 25 ft 3 kts 11°
2026-04-20 00:12 32.73396 -117.19970 28 ft 14 kts 12°
2026-04-20 00:12 32.73475 -117.19913 26 ft 14 kts 77°
2026-04-20 00:12 32.73453 -117.19793 28 ft 17 kts 105°
2026-04-20 00:13 32.73417 -117.19642 29 ft 21 kts 105°
2026-04-20 00:13 32.73376 -117.19473 27 ft 22 kts 107°
2026-04-20 00:13 32.73330 -117.19292 23 ft 24 kts 106°
2026-04-20 00:13 32.73287 -117.19109 29 ft 23 kts 106°
2026-04-20 00:14 32.73244 -117.18930 28 ft 22 kts 105°
2026-04-20 00:14 32.73200 -117.18754 37 ft 22 kts 106°
2026-04-20 00:14 32.73160 -117.18587 29 ft 21 kts 106°
2026-04-20 00:14 32.73121 -117.18423 24 ft 20 kts 105°
2026-04-20 00:15 32.73080 -117.18252 26 ft 23 kts 107°
2026-04-20 00:15 32.73044 -117.18110 20 ft 16 kts 106°
2026-04-20 00:15 32.73008 -117.17955 20 ft 22 kts 105°
2026-04-20 00:15 32.72960 -117.17768 19 ft 24 kts 108°
2026-04-20 00:16 32.72964 -117.17630 21 ft 13 kts 68°
2026-04-20 00:16 32.73025 -117.17616 23 ft 9 kts 305°
2026-04-20 00:16 32.73051 -117.17711 21 ft 32 kts 285°
2026-04-20 00:16 32.73128 -117.18037 19 ft 88 kts 287°
2026-04-20 00:17 32.73369 -117.19002 46 ft 154 kts 287°
2026-04-20 00:17 32.73736 -117.20292 679 ft 176 kts 290°
2026-04-20 00:17 32.74383 -117.21682 1260 ft 203 kts 302°
2026-04-20 00:17 32.75196 -117.23113 1920 ft 215 kts 306°
2026-04-20 00:18 32.76093 -117.24570 2552 ft 221 kts 304°
2026-04-20 00:18 32.76940 -117.26173 2952 ft 240 kts 298°
2026-04-20 00:18 32.77823 -117.27916 3553 ft 249 kts 300°
2026-04-20 00:18 32.78790 -117.29722 3912 ft 271 kts 301°
2026-04-20 00:19 32.79848 -117.31631 4645 ft 280 kts 301°
2026-04-20 00:19 32.80976 -117.33521 5630 ft 281 kts 305°
2026-04-20 00:19 32.82181 -117.35380 6496 ft 287 kts 306°
2026-04-20 00:19 32.83420 -117.37265 7329 ft 291 kts 306°
2026-04-20 00:20 32.84666 -117.39168 8225 ft 292 kts 306°
2026-04-20 00:20 32.85916 -117.41090 9113 ft 295 kts 306°
2026-04-20 00:20 32.87176 -117.43035 9986 ft 298 kts 306°
2026-04-20 00:20 32.88461 -117.45026 10528 ft 313 kts 306°
2026-04-20 00:21 32.89844 -117.47174 10766 ft 337 kts 306°
2026-04-20 00:21 32.91289 -117.49420 11394 ft 345 kts 306°
2026-04-20 00:21 32.92761 -117.51708 12155 ft 350 kts 306°
2026-04-20 00:21 32.94228 -117.53992 12939 ft 353 kts 306°
2026-04-20 00:22 32.95728 -117.56330 13701 ft 358 kts 306°
2026-04-20 00:22 32.97244 -117.58694 14391 ft 362 kts 306°
2026-04-20 00:22 32.98781 -117.61092 14816 ft 365 kts 305°
2026-04-20 00:22 33.00322 -117.63499 14978 ft 368 kts 305°
2026-04-20 00:23 33.01873 -117.65922 14967 ft 366 kts 305°
2026-04-20 00:23 33.03409 -117.68323 14978 ft 365 kts 305°
2026-04-20 00:23 33.04946 -117.70728 14980 ft 365 kts 305°
2026-04-20 00:23 33.06506 -117.73120 14970 ft 366 kts 309°
2026-04-20 00:24 33.08336 -117.75233 14975 ft 367 kts 317°
2026-04-20 00:24 33.10314 -117.77174 14971 ft 368 kts 320°
2026-04-20 00:24 33.12320 -117.79094 14961 ft 369 kts 319°
2026-04-20 00:24 33.14305 -117.81036 14970 ft 369 kts 319°
2026-04-20 00:25 33.16265 -117.83004 14968 ft 369 kts 318°
2026-04-20 00:25 33.18217 -117.84989 14966 ft 369 kts 317°
2026-04-20 00:25 33.20172 -117.86975 14975 ft 369 kts 318°
2026-04-20 00:25 33.22166 -117.88940 15200 ft 375 kts 319°
2026-04-20 00:26 33.24198 -117.90914 15943 ft 375 kts 319°
2026-04-20 00:26 33.26224 -117.92878 16767 ft 376 kts 319°
2026-04-20 00:26 33.28260 -117.94855 17452 ft 380 kts 319°
2026-04-20 00:26 33.30323 -117.96863 18108 ft 385 kts 318°
2026-04-20 00:27 33.32374 -117.98866 18718 ft 388 kts 318°
2026-04-20 00:27 33.34466 -118.00910 19396 ft 388 kts 318°
2026-04-20 00:27 33.36560 -118.02958 20083 ft 389 kts 318°
2026-04-20 00:27 33.38660 -118.05013 20724 ft 391 kts 318°
2026-04-20 00:28 33.40768 -118.07080 21347 ft 393 kts 318°
2026-04-20 00:28 33.42889 -118.09160 22000 ft 394 kts 318°
2026-04-20 00:28 33.45018 -118.11249 22617 ft 396 kts 318°
2026-04-20 00:28 33.47153 -118.13346 23231 ft 398 kts 318°
2026-04-20 00:29 33.49302 -118.15458 23756 ft 401 kts 318°
2026-04-20 00:29 33.51463 -118.17583 24243 ft 403 kts 318°
2026-04-20 00:29 33.53630 -118.19715 24741 ft 404 kts 318°
2026-04-20 00:29 33.55813 -118.21863 25230 ft 406 kts 319°
2026-04-20 00:30 33.58044 -118.23943 25676 ft 410 kts 326°
2026-04-20 00:30 33.60606 -118.25511 26100 ft 415 kts 334°
2026-04-20 00:30 33.63258 -118.26895 26555 ft 417 kts 334°
2026-04-20 00:30 33.65925 -118.28272 27013 ft 418 kts 334°
2026-04-20 00:31 33.68598 -118.29689 27450 ft 420 kts 334°
2026-04-20 00:31 33.71264 -118.31140 27892 ft 422 kts 333°
2026-04-20 00:31 33.73934 -118.32614 28314 ft 424 kts 333°
2026-04-20 00:31 33.76624 -118.34101 28701 ft 426 kts 334°
2026-04-20 00:32 33.79351 -118.35523 29083 ft 429 kts 335°
2026-04-20 00:32 33.82078 -118.36882 29415 ft 432 kts 335°
2026-04-20 00:32 33.84901 -118.38276 29972 ft 430 kts 335°
2026-04-20 00:32 33.87625 -118.39627 30427 ft 428 kts 335°
2026-04-20 00:33 33.90416 -118.41026 30747 ft 430 kts 335°
2026-04-20 00:33 33.93179 -118.42421 31055 ft 431 kts 335°
2026-04-20 00:33 33.95906 -118.43801 31426 ft 431 kts 335°
2026-04-20 00:33 33.98704 -118.45218 31875 ft 429 kts 335°
2026-04-20 00:34 34.01506 -118.46331 32172 ft 435 kts 348°
2026-04-20 00:34 34.04514 -118.46793 32527 ft 436 kts 350°
2026-04-20 00:34 34.07523 -118.47206 32912 ft 435 kts 350°
2026-04-20 00:34 34.10533 -118.47622 33279 ft 435 kts 350°
2026-04-20 00:35 34.13530 -118.48050 33619 ft 434 kts 350°
2026-04-20 00:35 34.16527 -118.48492 33972 ft 434 kts 349°
2026-04-20 00:35 34.19523 -118.48943 34253 ft 434 kts 349°
2026-04-20 00:35 34.22519 -118.49401 34482 ft 435 kts 349°
2026-04-20 00:36 34.25532 -118.49866 34693 ft 437 kts 349°
2026-04-20 00:36 34.28550 -118.50332 34962 ft 437 kts 349°
2026-04-20 00:36 34.31565 -118.50797 35259 ft 437 kts 348°
2026-04-20 00:36 34.34590 -118.51265 35477 ft 438 kts 348°
2026-04-20 00:37 34.37619 -118.51733 35699 ft 439 kts 348°
2026-04-20 00:37 34.40653 -118.52202 35952 ft 439 kts 348°
2026-04-20 00:37 34.43701 -118.52675 35954 ft 445 kts 348°
2026-04-20 00:38 34.49916 -118.53640 35950 ft 455 kts 348°
2026-04-20 00:38 34.56263 -118.54624 35960 ft 464 kts 348°
2026-04-20 00:39 34.62720 -118.55627 35956 ft 471 kts 348°
2026-04-20 00:39 34.69195 -118.56631 35958 ft 473 kts 349°
2026-04-20 00:40 34.75725 -118.57647 35947 ft 474 kts 349°
2026-04-20 00:40 34.82264 -118.58666 35937 ft 473 kts 348°
2026-04-20 00:41 34.88781 -118.59684 35964 ft 472 kts 349°
2026-04-20 00:41 34.95296 -118.60704 35979 ft 471 kts 348°
2026-04-20 00:42 35.01633 -118.62364 35992 ft 460 kts 329°
2026-04-20 00:42 35.04285 -118.64454 35991 ft 452 kts 317°
2026-04-20 00:42 35.06696 -118.66908 36002 ft 452 kts 316°
2026-04-20 00:43 35.11480 -118.71894 35973 ft 452 kts 316°
2026-04-20 00:43 35.16284 -118.76842 35906 ft 452 kts 316°
2026-04-20 00:44 35.21109 -118.81753 35868 ft 451 kts 317°
2026-04-20 00:44 35.25933 -118.86653 35878 ft 450 kts 316°
2026-04-20 00:45 35.30746 -118.91550 35859 ft 450 kts 316°
2026-04-20 00:45 35.35551 -118.96451 35846 ft 449 kts 316°
2026-04-20 00:46 35.40320 -119.01323 35852 ft 448 kts 316°
2026-04-20 00:46 35.45105 -119.06219 35854 ft 448 kts 316°
2026-04-20 00:47 35.50249 -119.10519 35856 ft 457 kts 336°
2026-04-20 00:47 35.56350 -119.12820 35866 ft 459 kts 339°
2026-04-20 00:48 35.62480 -119.15048 35874 ft 460 kts 339°
2026-04-20 00:48 35.68611 -119.17330 35854 ft 460 kts 339°
2026-04-20 00:49 35.74728 -119.19647 35861 ft 460 kts 338°
2026-04-20 00:49 35.80850 -119.21982 35863 ft 460 kts 338°
2026-04-20 00:50 35.86971 -119.24321 35878 ft 460 kts 338°
2026-04-20 00:50 35.93082 -119.26657 35879 ft 459 kts 338°
2026-04-20 00:51 35.99185 -119.28995 35876 ft 458 kts 338°
2026-04-20 00:51 36.05280 -119.31333 35881 ft 458 kts 338°
2026-04-20 00:52 36.11366 -119.33672 35882 ft 458 kts 338°
2026-04-20 00:52 36.17408 -119.35998 35878 ft 458 kts 338°
2026-04-20 00:53 36.23496 -119.38344 35885 ft 458 kts 338°
2026-04-20 00:53 36.29589 -119.40697 35879 ft 458 kts 338°
2026-04-20 00:54 36.35682 -119.43053 35881 ft 458 kts 338°
2026-04-20 00:54 36.41772 -119.45413 35887 ft 459 kts 338°
2026-04-20 00:55 36.47866 -119.47777 35882 ft 459 kts 338°
2026-04-20 00:55 36.53973 -119.50151 35879 ft 459 kts 338°
2026-04-20 00:56 36.60073 -119.52525 35882 ft 459 kts 338°
2026-04-20 00:56 36.66181 -119.54905 35888 ft 459 kts 338°
2026-04-20 00:57 36.72246 -119.57275 35881 ft 459 kts 338°
2026-04-20 00:57 36.78346 -119.59662 35880 ft 459 kts 338°
2026-04-20 00:58 36.84441 -119.62051 35878 ft 459 kts 338°
2026-04-20 00:58 36.90538 -119.64445 35884 ft 459 kts 338°
2026-04-20 00:59 36.96628 -119.66840 35883 ft 459 kts 338°
2026-04-20 00:59 37.02728 -119.69242 35886 ft 460 kts 338°
2026-04-20 01:00 37.08829 -119.71649 35886 ft 459 kts 338°
2026-04-20 01:00 37.14929 -119.74060 35894 ft 459 kts 338°
2026-04-20 01:01 37.21023 -119.76472 35916 ft 460 kts 338°
2026-04-20 01:01 37.27133 -119.78896 35901 ft 460 kts 338°
2026-04-20 01:02 37.33195 -119.81303 35920 ft 460 kts 338°
2026-04-20 01:02 37.38310 -119.83337 35916 ft 460 kts 337°
2026-04-20 01:03 37.44412 -119.85768 35916 ft 460 kts 337°
2026-04-20 01:03 37.51507 -119.88601 35926 ft 460 kts 337°
2026-04-20 01:04 37.56617 -119.90645 35927 ft 461 kts 337°
2026-04-20 01:04 37.62730 -119.93094 35929 ft 461 kts 337°
2026-04-20 01:05 37.68817 -119.95538 35924 ft 462 kts 338°
2026-04-20 01:05 37.74947 -119.98001 35930 ft 463 kts 337°
2026-04-20 01:06 37.81098 -120.00477 35931 ft 465 kts 337°
2026-04-20 01:06 37.87261 -120.02963 35932 ft 465 kts 337°
2026-04-20 01:07 37.93432 -120.05456 35946 ft 466 kts 338°
2026-04-20 01:07 37.99606 -120.07950 35923 ft 466 kts 337°
2026-04-20 01:08 38.05783 -120.10457 35933 ft 466 kts 338°
2026-04-20 01:08 38.11968 -120.12967 35945 ft 467 kts 337°
2026-04-20 01:09 38.18150 -120.15485 35937 ft 467 kts 337°
2026-04-20 01:09 38.24335 -120.18007 35933 ft 467 kts 337°
2026-04-20 01:10 38.30519 -120.20534 35940 ft 467 kts 337°
2026-04-20 01:10 38.39819 -120.24340 35939 ft 468 kts 337°
2026-04-20 01:11 38.46018 -120.26882 35944 ft 468 kts 337°
2026-04-20 01:11 38.52229 -120.29435 35939 ft 470 kts 337°
2026-04-20 01:12 38.58456 -120.31999 35942 ft 470 kts 337°
2026-04-20 01:12 38.64645 -120.34551 35941 ft 470 kts 337°
2026-04-20 01:13 38.70868 -120.37124 35947 ft 470 kts 337°
2026-04-20 01:13 38.77096 -120.39701 35937 ft 470 kts 337°
2026-04-20 01:14 38.83323 -120.42276 35943 ft 470 kts 337°
2026-04-20 01:14 38.89551 -120.44868 35929 ft 471 kts 337°
2026-04-20 01:15 38.95787 -120.47466 35935 ft 471 kts 337°
2026-04-20 01:15 39.02029 -120.50070 35954 ft 472 kts 337°
2026-04-20 01:16 39.08299 -120.52689 35964 ft 474 kts 337°
2026-04-20 01:16 39.14574 -120.55315 35995 ft 474 kts 337°
2026-04-20 01:17 39.20815 -120.57933 36022 ft 475 kts 337°
2026-04-20 01:17 39.27107 -120.60577 36034 ft 476 kts 337°
2026-04-20 01:18 39.33413 -120.63231 36024 ft 476 kts 337°
2026-04-20 01:18 39.39724 -120.65892 35921 ft 477 kts 337°
2026-04-20 01:19 39.46039 -120.68561 35919 ft 478 kts 337°
2026-04-20 01:19 39.52351 -120.71234 35918 ft 478 kts 337°
2026-04-20 01:20 39.58681 -120.73911 35930 ft 479 kts 337°
2026-04-20 01:20 39.65022 -120.76608 35914 ft 480 kts 337°
2026-04-20 01:21 39.71363 -120.79313 35942 ft 480 kts 336°
2026-04-20 01:21 39.77711 -120.82023 35936 ft 481 kts 337°
2026-04-20 01:22 39.84080 -120.84743 35924 ft 481 kts 337°
2026-04-20 01:22 39.90441 -120.87468 35916 ft 481 kts 337°
2026-04-20 01:23 39.96804 -120.90200 35923 ft 482 kts 337°
2026-04-20 01:23 40.03168 -120.92936 35910 ft 482 kts 337°
2026-04-20 01:24 40.09542 -120.95683 35935 ft 482 kts 337°
2026-04-20 01:24 40.15915 -120.98442 35927 ft 483 kts 336°
2026-04-20 01:25 40.22312 -121.01205 35935 ft 485 kts 337°
2026-04-20 01:25 40.28718 -121.03978 35932 ft 484 kts 337°
2026-04-20 01:26 40.35123 -121.06759 35927 ft 485 kts 337°
2026-04-20 01:26 40.41490 -121.09531 35934 ft 485 kts 337°
2026-04-20 01:27 40.47953 -121.12307 35930 ft 486 kts 338°
2026-04-20 01:27 40.54372 -121.14936 35928 ft 486 kts 338°
2026-04-20 01:28 40.60838 -121.17568 35926 ft 487 kts 338°
2026-04-20 01:28 40.67304 -121.20223 35919 ft 487 kts 338°
2026-04-20 01:29 40.73778 -121.22897 35943 ft 488 kts 338°
2026-04-20 01:29 40.80276 -121.25591 35920 ft 490 kts 338°
2026-04-20 01:30 40.86793 -121.28298 35897 ft 491 kts 338°
2026-04-20 01:30 40.93303 -121.31005 35895 ft 490 kts 338°
2026-04-20 01:31 40.99806 -121.33715 35886 ft 489 kts 338°
2026-04-20 01:31 41.06303 -121.36428 35888 ft 489 kts 338°
2026-04-20 01:32 41.12794 -121.39146 35898 ft 489 kts 338°
2026-04-20 01:32 41.19246 -121.41853 35901 ft 490 kts 338°
2026-04-20 01:33 41.25752 -121.44588 35928 ft 490 kts 338°
2026-04-20 01:33 41.32264 -121.47331 35919 ft 491 kts 338°
2026-04-20 01:34 41.38781 -121.50082 35938 ft 491 kts 338°
2026-04-20 01:34 41.45307 -121.52842 35940 ft 493 kts 338°
2026-04-20 01:35 41.51844 -121.55614 35931 ft 494 kts 338°
2026-04-20 01:35 41.58402 -121.58399 35928 ft 494 kts 338°
2026-04-20 01:36 41.64977 -121.61199 35931 ft 497 kts 338°
2026-04-20 01:36 41.71582 -121.64017 35917 ft 498 kts 338°
2026-04-20 01:37 41.78201 -121.66847 35931 ft 501 kts 338°
2026-04-20 01:37 41.84814 -121.69683 35893 ft 503 kts 338°
2026-04-20 01:38 41.91483 -121.72544 35909 ft 503 kts 338°
2026-04-20 01:38 41.98165 -121.75418 35925 ft 503 kts 338°
2026-04-20 01:39 42.04828 -121.78291 35928 ft 503 kts 338°
2026-04-20 01:39 42.11483 -121.81168 35935 ft 502 kts 338°
2026-04-20 01:40 42.18129 -121.84047 35935 ft 501 kts 338°
2026-04-20 01:40 42.24771 -121.86931 35876 ft 501 kts 338°
2026-04-20 01:41 42.31411 -121.89821 35882 ft 501 kts 338°
2026-04-20 01:41 42.38042 -121.92712 35858 ft 500 kts 338°
2026-04-20 01:42 42.44609 -121.95586 35863 ft 498 kts 338°
2026-04-20 01:42 42.51248 -121.98491 35875 ft 498 kts 338°
2026-04-20 01:43 42.57809 -122.01371 35872 ft 498 kts 338°
2026-04-20 01:43 42.64411 -122.04277 35866 ft 499 kts 338°
2026-04-20 01:44 42.71023 -122.07193 35879 ft 500 kts 338°
2026-04-20 01:44 42.77653 -122.10123 35872 ft 501 kts 338°
2026-04-20 01:45 42.84284 -122.13061 35882 ft 502 kts 338°
2026-04-20 01:45 42.90928 -122.16010 35866 ft 502 kts 338°
2026-04-20 01:46 42.97541 -122.19036 35857 ft 501 kts 337°
2026-04-20 01:46 43.04130 -122.22154 35874 ft 501 kts 337°
2026-04-20 01:47 43.10724 -122.25277 35871 ft 502 kts 337°
2026-04-20 01:47 43.17297 -122.28379 35854 ft 500 kts 337°
2026-04-20 01:48 43.20544 -122.29906 35848 ft 485 kts 337°
2026-04-20 01:48 43.23681 -122.31382 35808 ft 470 kts 337°
2026-04-20 01:48 43.26759 -122.32835 35477 ft 465 kts 337°
2026-04-20 01:48 43.29792 -122.34275 35164 ft 459 kts 337°
2026-04-20 01:49 43.32801 -122.35706 34804 ft 456 kts 336°
2026-04-20 01:49 43.35794 -122.37131 34445 ft 454 kts 336°
2026-04-20 01:49 43.38767 -122.38565 34039 ft 451 kts 336°
2026-04-20 01:49 43.41719 -122.40002 33645 ft 450 kts 337°
2026-04-20 01:50 43.44675 -122.41379 33246 ft 447 kts 338°
2026-04-20 01:50 43.47605 -122.42752 32858 ft 444 kts 337°
2026-04-20 01:50 43.50518 -122.44134 32483 ft 441 kts 337°
2026-04-20 01:50 43.52432 -122.45046 32232 ft 438 kts 337°
2026-04-20 01:51 43.55296 -122.46408 31907 ft 434 kts 337°
2026-04-20 01:51 43.58144 -122.47783 31542 ft 432 kts 337°
2026-04-20 01:51 43.60972 -122.49149 31182 ft 430 kts 337°
2026-04-20 01:51 43.63786 -122.50504 30815 ft 428 kts 338°
2026-04-20 01:52 43.66590 -122.51854 30479 ft 426 kts 338°
2026-04-20 01:52 43.69390 -122.53201 30087 ft 425 kts 338°
2026-04-20 01:52 43.72174 -122.54547 29731 ft 423 kts 338°
2026-04-20 01:52 43.74941 -122.55894 29393 ft 421 kts 337°
2026-04-20 01:53 43.77717 -122.57236 28912 ft 422 kts 338°
2026-04-20 01:53 43.80482 -122.58551 28557 ft 418 kts 339°
2026-04-20 01:53 43.83221 -122.59859 28189 ft 415 kts 339°
2026-04-20 01:53 43.85939 -122.61174 27813 ft 412 kts 338°
2026-04-20 01:54 43.88638 -122.62487 27447 ft 409 kts 338°
2026-04-20 01:54 43.91318 -122.63790 27081 ft 407 kts 339°
2026-04-20 01:54 43.93955 -122.65071 26703 ft 405 kts 339°
2026-04-20 01:54 43.96600 -122.66354 26366 ft 401 kts 338°
2026-04-20 01:55 43.99225 -122.67635 26030 ft 399 kts 338°
2026-04-20 01:55 44.01837 -122.68911 25675 ft 397 kts 339°
2026-04-20 01:55 44.04441 -122.70182 25315 ft 395 kts 339°
2026-04-20 01:55 44.07031 -122.71444 24946 ft 393 kts 339°
2026-04-20 01:56 44.09602 -122.72695 24622 ft 390 kts 339°
2026-04-20 01:56 44.12160 -122.73947 24279 ft 389 kts 339°
2026-04-20 01:56 44.14728 -122.75096 23920 ft 388 kts 348°
2026-04-20 01:56 44.17411 -122.75228 23569 ft 386 kts
2026-04-20 01:57 44.20081 -122.74933 23147 ft 385 kts
2026-04-20 01:57 44.22743 -122.74628 22762 ft 383 kts
2026-04-20 01:57 44.25392 -122.74333 22382 ft 381 kts
2026-04-20 01:57 44.28036 -122.74051 22036 ft 381 kts
2026-04-20 01:58 44.30694 -122.73777 21671 ft 386 kts
2026-04-20 01:58 44.33384 -122.73505 21335 ft 390 kts
2026-04-20 01:58 44.36099 -122.73234 20939 ft 390 kts
2026-04-20 01:58 44.38800 -122.72967 20590 ft 388 kts
2026-04-20 01:59 44.41491 -122.72702 20229 ft 387 kts
2026-04-20 01:59 44.44169 -122.72438 19874 ft 385 kts
2026-04-20 01:59 44.46838 -122.72174 19513 ft 384 kts
2026-04-20 01:59 44.49504 -122.71910 19164 ft 383 kts
2026-04-20 02:00 44.52160 -122.71646 18814 ft 381 kts
2026-04-20 02:00 44.54797 -122.71384 18453 ft 378 kts
2026-04-20 02:00 44.57413 -122.71124 18097 ft 376 kts
2026-04-20 02:00 44.60018 -122.70865 17702 ft 374 kts
2026-04-20 02:01 44.62602 -122.70606 17331 ft 371 kts
2026-04-20 02:01 44.65134 -122.70352 16980 ft 368 kts
2026-04-20 02:01 44.67678 -122.70094 16617 ft 365 kts
2026-04-20 02:01 44.70196 -122.69839 16281 ft 361 kts
2026-04-20 02:02 44.72695 -122.69590 15948 ft 358 kts
2026-04-20 02:02 44.75174 -122.69342 15630 ft 356 kts
2026-04-20 02:02 44.77635 -122.69094 15287 ft 353 kts
2026-04-20 02:02 44.80077 -122.68848 14980 ft 351 kts
2026-04-20 02:03 44.82506 -122.68603 14654 ft 349 kts
2026-04-20 02:03 44.84925 -122.68361 14334 ft 347 kts
2026-04-20 02:03 44.87332 -122.68119 14011 ft 346 kts
2026-04-20 02:03 44.89728 -122.67877 13680 ft 345 kts
2026-04-20 02:04 44.92120 -122.67637 13333 ft 343 kts
2026-04-20 02:04 44.94492 -122.67397 12996 ft 341 kts
2026-04-20 02:04 44.96855 -122.67158 12671 ft 339 kts
2026-04-20 02:04 44.99198 -122.66919 12328 ft 337 kts
2026-04-20 02:05 45.01528 -122.66683 12023 ft 335 kts
2026-04-20 02:05 45.03844 -122.66449 11707 ft 332 kts
2026-04-20 02:05 45.06138 -122.66215 11420 ft 330 kts
2026-04-20 02:05 45.08426 -122.65983 11103 ft 328 kts
2026-04-20 02:06 45.10696 -122.65752 10800 ft 326 kts
2026-04-20 02:06 45.12954 -122.65522 10496 ft 324 kts
2026-04-20 02:06 45.15199 -122.65293 10196 ft 322 kts
2026-04-20 02:06 45.17423 -122.65067 9904 ft 319 kts
2026-04-20 02:07 45.19617 -122.64843 9664 ft 314 kts
2026-04-20 02:07 45.21823 -122.64617 9112 ft 319 kts
2026-04-20 02:07 45.24026 -122.64403 8744 ft 317 kts
2026-04-20 02:07 45.26170 -122.64879 8449 ft 308 kts 340°
2026-04-20 02:08 45.28114 -122.65988 8177 ft 296 kts 339°
2026-04-20 02:08 45.29993 -122.67048 7886 ft 286 kts 339°
2026-04-20 02:08 45.31815 -122.68057 7605 ft 277 kts 339°
2026-04-20 02:08 45.33590 -122.69033 7329 ft 269 kts 339°
2026-04-20 02:09 45.35319 -122.69982 7068 ft 262 kts 339°
2026-04-20 02:09 45.37003 -122.70906 6820 ft 258 kts 340°
2026-04-20 02:09 45.38668 -122.71819 6590 ft 261 kts 340°
2026-04-20 02:09 45.40369 -122.72752 6329 ft 261 kts 340°
2026-04-20 02:10 45.42063 -122.73681 6055 ft 260 kts 340°
2026-04-20 02:10 45.43745 -122.74606 5787 ft 258 kts 340°
2026-04-20 02:10 45.45423 -122.75529 5518 ft 257 kts 340°
2026-04-20 02:10 45.47065 -122.76433 5410 ft 249 kts 340°
2026-04-20 02:11 45.48662 -122.77312 5292 ft 243 kts 340°
2026-04-20 02:11 45.50214 -122.78171 5177 ft 236 kts 340°
2026-04-20 02:11 45.51727 -122.79003 5066 ft 231 kts 341°
2026-04-20 02:11 45.53218 -122.79826 5018 ft 228 kts 341°
2026-04-20 02:12 45.54684 -122.80633 5013 ft 224 kts 341°
2026-04-20 02:12 45.56121 -122.81426 5014 ft 220 kts 340°
2026-04-20 02:12 45.57534 -122.82295 4995 ft 225 kts 328°
2026-04-20 02:12 45.58527 -122.84031 5018 ft 230 kts 303°
2026-04-20 02:13 45.59372 -122.86002 5006 ft 234 kts 304°
2026-04-20 02:13 45.60231 -122.87965 4920 ft 234 kts 304°
2026-04-20 02:13 45.61101 -122.89895 4740 ft 229 kts 310°
2026-04-20 02:13 45.62354 -122.91196 4424 ft 221 kts 343°
2026-04-20 02:14 45.63864 -122.91309 4072 ft 218 kts 15°
2026-04-20 02:14 45.65159 -122.90272 3708 ft 216 kts 45°
2026-04-20 02:14 45.65913 -122.88421 3231 ft 221 kts 74°
2026-04-20 02:14 45.66141 -122.86236 3102 ft 226 kts 82°
2026-04-20 02:15 45.66320 -122.83997 3018 ft 225 kts 82°
2026-04-20 02:15 45.66499 -122.81759 2766 ft 226 kts 81°
2026-04-20 02:15 45.66672 -122.79554 2601 ft 218 kts 83°
2026-04-20 02:15 45.66417 -122.77487 2410 ft 210 kts 116°
2026-04-20 02:16 45.65731 -122.75730 2272 ft 198 kts 116°
2026-04-20 02:16 45.65102 -122.74019 2142 ft 196 kts 117°
2026-04-20 02:16 45.64453 -122.72329 1997 ft 194 kts 117°
2026-04-20 02:16 45.63789 -122.70627 1773 ft 198 kts 118°
2026-04-20 02:17 45.63105 -122.68874 1507 ft 200 kts 118°
2026-04-20 02:17 45.62453 -122.67202 1246 ft 190 kts 118°
2026-04-20 02:17 45.61842 -122.65635 1042 ft 170 kts 118°
2026-04-20 02:17 45.61276 -122.64194 780 ft 163 kts 119°
2026-04-20 02:18 45.60740 -122.62825 522 ft 153 kts 118°
2026-04-20 02:18 45.60248 -122.61535 315 ft 141 kts 118°
2026-04-20 02:18 45.59775 -122.60327 160 ft 139 kts 117°
2026-04-20 02:18 45.59302 -122.59109 39 ft 133 kts 117°
2026-04-20 02:19 45.58932 -122.58158 32 ft 82 kts 120°
2026-04-20 02:19 45.58759 -122.57714 33 ft 23 kts 121°
2026-04-20 02:19 45.58694 -122.57616 30 ft 9 kts 159°
2026-04-20 02:19 45.58660 -122.57620 32 ft 1 kts 199°
2026-04-20 02:20 45.58641 -122.57638 33 ft 10 kts 224°
2026-04-20 02:20 45.58645 -122.57741 33 ft 11 kts 295°
2026-04-20 02:20 45.58681 -122.57838 37 ft 11 kts 301°
2026-04-20 02:20 45.58721 -122.57935 37 ft 12 kts 298°
2026-04-20 02:21 45.58821 -122.58193 36 ft 17 kts 300°
2026-04-20 02:21 45.58886 -122.58357 31 ft 21 kts 298°
2026-04-20 02:21 45.58949 -122.58520 31 ft 16 kts 297°
2026-04-20 02:22 45.58947 -122.58661 31 ft 12 kts 231°
2026-04-20 02:22 45.58904 -122.58753 30 ft 9 kts 259°